« Back
NWS Peachtree City, Ga » Text Product » GA Regional Weather Roundup


Printer-friendly Version
Current Version              Previous Versions:   1  2  3  4  5  6  7  8  9  

Regional Weather Roundup

660
ASUS42 KFFC 060403
RWRGA
WEATHER ROUNDUP FOR GEORGIA
NATIONAL WEATHER SERVICE PEACHTREE CITY GA
1100 PM EST THU MAR 05 2015

NOTE: "FAIR" INDICATES FEW OR NO CLOUDS BELOW 12,000 FEET WITH NO
SIGNIFICANT WEATHER AND/OR OBSTRUCTIONS TO VISIBILITY.

* = USE WITH CAUTION. THE STATIONS MARKED WITH AN ASTERISK MAY NOT
REPORT WEATHER SUCH AS PRECIPITATION, FOG, OR THUNDER AND ARE NOT
QUALITY CONTROLLED BY NWS.

THE REMARK "TC" DENOTES TEMPERATURE READING IN DEGREES CELSIUS.

GAZ001>058-060500-
NORTH GEORGIA

CITY           SKY/WX    TMP DP  RH WIND       PRES   REMARKS
ATLANTA        MOCLDY    31  24  75 NW14      30.31R WCI  21
ATHENS         CLOUDY    40  31  70 NW8       30.25R WCI  34
CHAMBLEE       PTCLDY    29  24  82 NW12      30.30R WCI  19
PEACHTREE CITY PTCLDY    32  25  75 NW13G22   30.32R WCI  22
ROME           CLOUDY    28  20  71 N14G25    30.40R WCI  17
WEST ATLANTA   PTCLDY    30  22  72 NW9G18    30.33R WCI  22
GAINESVILLE    PTCLDY    33  26  75 NW10      30.25S WCI  25
CARTERSVILLE   CLOUDY    28  21  75 NW8G17    30.38R WCI  20


CITY           SKY/WX    TMP DP  RH WIND       PRES   REMARKS
DALTON*        CLOUDY    27  23  86 N16G23    30.40R WCI  14
MARIETTA       MOCLDY    28  24  83 NW13      30.32R WCI  18
$$

GAZ059>098-102>109-060500-
CENTRAL GEORGIA

CITY           SKY/WX    TMP DP  RH WIND       PRES   REMARKS
AUGUSTA-BUSH   CLOUDY    47  43  86 NE17G26   30.22R
AUGUSTA-DANIEL LGT RAIN  47  44  90 NE18G24   30.23R FOG
COLUMBUS       MOCLDY    36  27  69 VRB7G17   30.33R WCI  30
MACON          CLOUDY    39  31  72 NW10      30.27R WCI  32
ROBINS AFB     MOCLDY    40  33  74 NW13      30.27R WCI  33


CITY           SKY/WX    TMP DP  RH WIND       PRES   REMARKS
LAGRANGE*      CLOUDY    36  30  80 NW9       30.34R WCI  29
SYLVANIA*      CLOUDY    52  50  90 N8        30.18S
MILLEDGEVILLE* MOCLDY    41  36  81 NW5       30.26S
$$

GAZ099>101-110>166-060500-
SOUTH GEORGIA

CITY           SKY/WX    TMP DP  RH WIND       PRES   REMARKS
SAVANNAH       CLOUDY    57  51  80 NW10G23   30.17R
VALDOSTA       CLOUDY    55  51  86 VRB3      30.22R
ALMA           MOCLDY    52  47  83 NW14      30.20S
ST SIMONS      CLOUDY    63  60  90 NW8       30.15R
FT STEWART     MOCLDY    56  52  86 NW9       30.15R
ALBANY         MOCLDY    45  38  76 NW10      30.30S
HUNTER AFB     CLOUDY    58  57  94 NW14      30.14R
MOODY AFB      CLOUDY    53  49  85 NW18      30.21R
BRUNSWICK      CLOUDY    61  55  82 NW8       30.17R


CITY           SKY/WX    TMP DP  RH WIND       PRES   REMARKS
BAINBRIDGE*    CLEAR     46  41  81 NW10      30.29R
MOULTRIE*      MOCLDY    48  45  87 N9G17     30.26R
VIDALIA*       MOCLDY    46  43  87 NW12      30.21R
WAYCROSS*      CLOUDY    58  54  89 N16       30.20R
DOUGLAS*       PTCLDY    52  46  82 NW8       30.25R
$$



USA.gov is the U.S. government's official web portal to all federal, state and local government web resources and services.